www.pogodaiklimat.ru
Время
и дата
09:54 30.12
10:08 30.12
10:17 30.12
10:43 30.12
10:54 30.12
11:54 30.12
12:54 30.12
13:54 30.12
14:54 30.12
15:54 30.12
16:54 30.12
17:54 30.12
18:54 30.12
19:54 30.12
20:54 30.12
21:54 30.12
22:54 30.12
23:54 30.12
00:54 31.12
01:54 31.12
02:54 31.12
03:21 31.12
03:33 31.12
03:54 31.12
04:54 31.12
05:18 31.12
05:37 31.12
05:54 31.12
06:54 31.12
07:54 31.12
08:09 31.12
08:50 31.12
08:54 31.12
09:01 31.12
09:33 31.12
09:46 31.12
09:54 31.12
10:12 31.12
10:45 31.12
10:54 31.12
11:23 31.12
11:54 31.12
12:11 31.12
12:54 31.12
13:54 31.12
14:54 31.12
15:54 31.12
16:54 31.12
Ветер
(напр.,м/с)
Видим. Явления Облачность Т
(С)
Тd
(С)
f
(%)
Тe
(С)
Тes
(С)
Комфортность P
(гПа)
Po
(гПа)
Тmin
(С)
Tmax
(С)
R
(мм)
R24
(мм)
S
(см)
штиль 0 11 км 10/10 300 м +21.1 +18.9 87 +25 +25 комфорт 1013.8 1001.5
С 1 13 км 10/10 330 м +22.2 +18.3 79 +27 +27 душно 1001.9
СВ 1 13 км 10/10 330 м +21.7 +18.3 81 +26 +26 душно 1001.9
СВ 1 16 км 8/8 300 м +22.2 +18.3 79 +27 +28 душно 1001.5
нст 1 16 км 5/2 300 м
[Ac]
+22.2 +18.3 79 +27 +31 душно 1013.6 1001.5
Ю 1 16 км ясно +23.9 +18.3 71 +28 +35 душно 1012.8 1000.5 +20.0 +23.9 0.5
Ю 1 16 км ясно +25.0 +16.7 60 +29 +36 душно 1011.9 999.9
ЮВ 1 16 км ясно +26.1 +15.0 50 +29 +35 жарко 1011.3 999.2
нст 1 16 км 2/0 7500 м
[Ci]
+26.1 +14.4 48 +28 +32 жарко 1010.8 998.5
ЮЗ 1 16 км ясно +26.1 +15.6 52 +29 +32 жарко 1011.3 999.2
Ю 1 16 км ясно +23.3 +16.1 64 +28 +29 душно 1011.7 999.5
штиль 0 16 км ясно +18.9 +15.6 81 +20 +20 1012.1 999.9 +18.9 +26.7
штиль 0 16 км ясно +18.3 +15.6 84 +19 +19 1012.3 999.9
штиль 0 16 км ясно +18.9 +15.6 81 +20 +20 1012.4 1000.2
штиль 0 13 км ясно +18.3 +16.1 87 +19 +19 1012.4 1000.2
штиль 0 11 км ясно +17.8 +16.1 90 +18 +18 1012.1 999.9
Ю 1 10 км дымка ясно +18.3 +16.7 90 +19 +19 1011.9 999.5
Ю 2 11 км ясно +20.0 +17.2 84 +23 +23 комфорт 1011.6 999.5 +17.2 +20.0
Ю 2 10 км дымка ясно +18.9 +17.2 90 +20 +20 1011.6 999.5
Ю 2 10 км дымка ясно +18.9 +17.2 90 +20 +20 1011.4 999.2
Ю 2 8 км дымка 2/2 660 м +18.9 +17.8 93 +20 +20 1011.3 999.2
Ю 2 8 км дымка 8/8 270 м +20.0 +18.3 90 +23 +23 комфорт 999.2
Ю 2 8 км дымка 10/10 210 м +20.0 +18.9 93 +23 +23 комфорт 998.9
Ю 2 8 км дымка 10/10 150 м +20.6 +18.9 90 +25 +25 комфорт 1011.1 998.9
Ю 1 8 км дымка 10/10 270 м +21.1 +19.4 90 +26 +26 душно 1011.2 998.9
Ю 1 8 км дымка 10/10 270 м +21.1 +19.4 90 +26 +26 душно 999.2
Ю 1 8 км дымка 10/10 240 м +20.6 +19.4 93 +25 +25 комфорт 999.5
Ю 1 8 км дымка 10/10 240 м +20.6 +19.4 93 +25 +25 комфорт 1011.7 999.5 +18.3 +21.1 0.5
Ю 1 8 км дымка 10/10 510 м +21.1 +19.4 90 +26 +26 душно 1012.4 1000.2
Ю 1 6 км дымка 10/10 420 м +21.1 +20.0 93 +26 +26 душно 1012.6 1000.2
Ю 1 6 км дымка 5/5 570 м +21.7 +20.0 90 +27 +27 душно 1000.5
Ю 2 8 км дымка 8/8 390 м +23.0 +21.0 89 +31 +31 очень
душно
1000.5
Ю 2 8 км дымка 8/8 390 м +22.8 +21.1 90 +30 +30 очень
душно
1013.0 1000.5
Ю 2 10 км дымка 8/8 240 м +22.8 +21.1 90 +30 +31 очень
душно
1000.9
Ю 2 11 км 8/8 300 м +23.9 +21.1 84 +30 +30 очень
душно
1000.9
Ю 2 13 км 8/8 390 м +24.4 +21.1 82 +31 +31 очень
душно
1000.9
Ю 2 13 км 8/8 390 м +24.4 +20.6 79 +30 +31 очень
душно
1012.9 1000.5
Ю 2 14 км 10/10 480 м +24.4 +20.6 79 +30 +30 очень
душно
1000.5
ЮЗ 3
{4}
16 км 8/5 510 м
[Ac]
+25.6 +20.0 71 +31 +32 очень
душно
1000.2
ЮЗ 3
{4}
16 км 8/5 570 м
[Ac]
+26.1 +20.0 69 +32 +32 очень
душно
1012.4 1000.2
ЮЗ 3
{4}
16 км 10/10 630 м +26.7 +20.0 67 +33 +33 очень
душно
999.9
ЮЗ 3
{4}
16 км 10/10 810 м +26.7 +19.4 64 +32 +32 очень
душно
1011.3 999.2 +20.6 +26.7
Ю 4
{5}
16 км 8/8 810 м +27.2 +19.4 62 +33 +33 очень
душно
998.9
ЮЗ 2 16 км 5/5 1020 м +26.7 +18.9 62 +32 +34 очень
душно
1010.2 997.9
Ю 2
{4}
16 км 8/8 1020 м +27.8 +18.9 58 +33 +34 очень
душно
1009.6 997.5
Ю 3
{5}
16 км 2/2 1140 м +27.8 +18.3 56 +33 +34 очень
душно
1009.1 996.9
Ю 3 16 км 2/2 1470 м +27.2 +17.8 56 +31 +32 душно 1009.0 996.9
Ю 2 16 км 8/8 1410 м +26.1 +18.3 62 +31 +31 очень
душно
1009.2 997.2
Местоположение метеостанции Jackson International Airport: широта 32.3197 долгота -90.0775 высота над уровнем моря 105 м.
В архиве по умолчанию представлена погода в Джексоне за последние 1-2 суток. Обновление информации о фактической погоде в базе происходит ежечасно! Архивные данные за месяц целиком и за предыдущие месяцы Вы можете получить, выбрав интересующий диапазон дат из раскрывающегося списка и нажав кнопку "Ввод!".
Внимание! Архив погоды МЕТАР в базе сайта по станциям, не включенным в климатический монитор, хранится не более 60 дней. Нет смысла пытаться выбрать более раннюю дату.
*Определитесь, кто Вы:
Внимание! Время в таблицах - местное (без учета летнего времени). Для получения всемирного времени необходимо вычесть поправку, которая равна -6 ч.
Смотрите также архив погоды в соседних городах и на ближайших метеорологических станциях:
Партнеры нашего сайта:      
Пояснения к столбцам:
  • Ветер - указаны скорость ветра в м/с - средняя за 10 мин, порывы в срок и между сроками (в фигурных скобках) и направление, откуда дует ветер: С - северный,
  • СВ - северо-восточный, В - восточный, ЮВ - юго-восточный, Ю - южный, ЮЗ - юго-западный, З - западный, СЗ - северо-западный.
  • Видимость - горизонтальная дальность видимости в метрах или километрах. При видимости от 1 до 10 км при отсутствии осадков обычно наблюдается дымка, при ухудшении видимости до 1 км и менее - туман. В сухую погоду видимость может ухудшаться дымом, пылью или мглою.
  • Явления - указаны атмосферные явления, наблюдавшиеся в срок или в последний час перед сроком; фигурными скобками обозначены явления, наблюдавшиеся между сроками (за 1-3 часа до срока); квадратными скобками обозначены град или гололедные отложения с указанием их диаметра в мм.
  • Облачность - указаны через наклонную черту общая и нижняя облачность в баллах и высота нижней границы облаков в метрах; квадратными скобками обозначены формы облаков: Ci - перистые, Cs - перисто-слоистые, Cc - перисто-кучевые, Ac - высококучевые, As - высокослоистые, Sc - слоисто-кучевые, Ns - слоисто-дождевые, Cu - кучевые, Cb - кучево-дождевые. Подробнее классификацию облаков см. в Атласе облаков (PDF).
  • T - Температура воздуха - температура, измеренная на высоте 2 м над землей.
  • Td - Температура точки росы - температура, при понижении до которой содержащийся в воздухе водяной пар достигнет насыщения.
  • f - Относительная влажность воздуха - влажноcть воздуха, измеренная на высоте 2 м над землей.
  • Te - Эффективная температура - температура, которую ощущает одетый по сезону человек в тени. Характеристика душности погоды. При расчете учитывается влияние влажности воздуха и скорости ветра на теплоощущения человека.
  • Tes - Эффективная температура на солнце - температура, которую ощущает человек, с поправкой на солнечный нагрев. Характеристика знойности погоды. Зависит от высоты солнца над горизонтом, облачности и скорости ветра. Ночью, в пасмурную погоду, а также при ветре 12 м/с и более поправка равна нулю.
  • P - Атмосферное давление - приведенное к уровню моря атмосферное давление.
  • Po - Атмосферное давление - измеренное на уровне метеостанции атмосферное давление.
  • Tmin - Минимальная температура - минимум температуры воздуха на высоте 2 м над землей.
  • Tmax - Максимальная температура - максимум температуры воздуха на высоте 2 м над землей.
  • R - Количество осадков - Количество выпавших осадков за период времени, мм. При наведении курсора мыши на число - период времени, за который выпало указанное количество осадков.
  • R24 - Количество осадков - Количество выпавших осадков за 24 часа, мм.
  • S - Снежный покров - Высота снежного покрова, см. При наведении курсора мыши на число - состояние снежного покрова и степень покрытия местности в баллах.